Time,TemperatureF,DewpointF,PressureIn,WindDirection,WindDirectionDegrees,WindSpeedMPH,WindSpeedGustMPH,Humidity,HourlyPrecipIn,Conditions,Clouds,dailyrainin,SoftwareType,DateUTC
2013-05-14 00:02:00,56.0,44.0,30.06,SSW,194,5.0,8.0,63,0.00,,,0.00,,2013-05-14 05:02:00,
2013-05-14 00:12:00,56.0,44.0,30.06,SSW,194,5.0,8.0,63,0.00,,,0.00,,2013-05-14 05:12:00,
2013-05-14 00:22:00,56.0,43.0,30.05,South,182,6.0,12.0,62,0.00,,,0.00,,2013-05-14 05:22:00,
2013-05-14 00:32:00,55.0,44.0,30.04,SSE,151,5.0,8.0,66,0.00,,,0.00,,2013-05-14 05:32:00,
2013-05-14 00:42:00,55.0,44.0,30.04,SSE,151,5.0,8.0,66,0.00,,,0.00,,2013-05-14 05:42:00,
2013-05-14 00:52:00,54.0,44.0,30.04,South,184,4.0,8.0,68,0.00,,,0.00,,2013-05-14 05:52:00,
2013-05-14 01:01:00,52.0,43.0,30.03,SSW,198,5.0,7.0,71,0.00,,,0.00,,2013-05-14 06:01:00,
2013-05-14 01:12:00,52.0,43.0,30.03,SSW,198,5.0,7.0,71,0.00,,,0.00,,2013-05-14 06:12:00,
2013-05-14 01:22:00,52.0,44.0,30.02,South,187,2.0,8.0,73,0.00,,,0.00,,2013-05-14 06:22:00,
2013-05-14 01:32:00,52.0,44.0,30.01,South,187,5.0,8.0,73,0.00,,,0.00,,2013-05-14 06:32:00,
2013-05-14 01:42:00,52.0,44.0,30.01,South,187,5.0,8.0,73,0.00,,,0.00,,2013-05-14 06:42:00,
2013-05-14 01:52:00,52.0,43.0,30.00,South,190,5.0,9.0,70,0.00,,,0.00,,2013-05-14 06:52:00,
2013-05-14 02:02:00,52.0,43.0,30.00,South,171,5.0,9.0,72,0.00,,,0.00,,2013-05-14 07:02:00,
2013-05-14 02:11:00,52.0,43.0,30.00,South,171,5.0,9.0,72,0.00,,,0.00,,2013-05-14 07:11:00,
2013-05-14 02:21:00,52.0,43.0,29.99,South,173,7.0,12.0,70,0.00,,,0.00,,2013-05-14 07:21:00,
2013-05-14 02:31:00,52.0,43.0,29.98,SSE,166,6.0,10.0,71,0.00,,,0.00,,2013-05-14 07:31:00,
2013-05-14 02:42:00,51.0,42.0,29.97,SSE,168,7.0,11.0,71,0.00,,,0.00,,2013-05-14 07:42:00,
2013-05-14 02:52:00,51.0,42.0,29.97,SSE,168,7.0,11.0,71,0.00,,,0.00,,2013-05-14 07:52:00,
2013-05-14 03:02:00,51.0,42.0,29.96,SSE,161,5.0,9.0,71,0.00,,,0.00,,2013-05-14 08:02:00,
2013-05-14 03:11:00,51.0,42.0,29.96,SSE,161,5.0,9.0,71,0.00,,,0.00,,2013-05-14 08:11:00,
2013-05-14 03:21:00,51.0,42.0,29.96,SSE,165,4.0,9.0,71,0.00,,,0.00,,2013-05-14 08:21:00,
2013-05-14 03:31:00,51.0,42.0,29.96,South,184,4.0,9.0,72,0.00,,,0.00,,2013-05-14 08:31:00,
2013-05-14 03:41:00,51.0,42.0,29.96,South,173,6.0,10.0,72,0.00,,,0.00,,2013-05-14 08:41:00,
2013-05-14 03:52:00,51.0,42.0,29.96,South,173,6.0,10.0,72,0.00,,,0.00,,2013-05-14 08:52:00,
2013-05-14 04:02:00,51.0,42.0,29.95,South,170,6.0,11.0,72,0.00,,,0.00,,2013-05-14 09:02:00,
2013-05-14 04:11:00,51.0,42.0,29.95,South,170,6.0,11.0,72,0.00,,,0.00,,2013-05-14 09:11:00,
2013-05-14 04:22:00,52.0,43.0,29.94,South,190,8.0,15.0,71,0.00,,,0.00,,2013-05-14 09:22:00,
2013-05-14 04:32:00,51.0,42.0,29.93,South,173,9.0,14.0,71,0.00,,,0.00,,2013-05-14 09:32:00,
2013-05-14 04:44:00,51.0,42.0,29.93,South,173,9.0,14.0,71,0.00,,,0.00,,2013-05-14 09:44:00,
2013-05-14 04:54:00,51.0,43.0,29.93,South,190,8.0,13.0,73,0.00,,,0.00,,2013-05-14 09:54:00,
2013-05-14 05:04:00,51.0,43.0,29.92,South,178,8.0,14.0,73,0.00,,,0.00,,2013-05-14 10:04:00,
2013-05-14 05:14:00,51.0,43.0,29.92,South,178,8.0,14.0,73,0.00,,,0.00,,2013-05-14 10:14:00,
2013-05-14 05:25:00,51.0,43.0,29.92,South,191,8.0,12.0,74,0.00,,,0.00,,2013-05-14 10:25:00,
2013-05-14 05:33:00,51.0,44.0,29.91,SSE,164,7.0,13.0,76,0.00,,,0.00,,2013-05-14 10:33:00,
2013-05-14 05:42:00,51.0,44.0,29.91,SSE,164,7.0,13.0,76,0.00,,,0.00,,2013-05-14 10:42:00,
2013-05-14 05:52:00,51.0,44.0,29.91,South,191,7.0,11.0,76,0.00,,,0.00,,2013-05-14 10:52:00,
2013-05-14 06:02:00,50.0,43.0,29.91,South,186,7.0,14.0,77,0.00,,,0.00,,2013-05-14 11:02:00,
2013-05-14 06:11:00,50.0,43.0,29.91,South,186,7.0,14.0,77,0.00,,,0.00,,2013-05-14 11:11:00,
2013-05-14 06:21:00,51.0,44.0,29.91,South,186,7.0,11.0,77,0.00,,,0.00,,2013-05-14 11:21:00,
2013-05-14 06:32:00,52.0,45.0,29.91,South,180,8.0,15.0,76,0.00,,,0.00,,2013-05-14 11:32:00,
2013-05-14 06:43:00,52.0,45.0,29.91,South,180,8.0,15.0,76,0.00,,,0.00,,2013-05-14 11:43:00,
2013-05-14 06:53:00,53.0,45.0,29.90,South,179,9.0,15.0,75,0.00,,,0.00,,2013-05-14 11:53:00,
2013-05-14 07:02:00,54.0,46.0,29.90,SSW,197,9.0,15.0,74,0.00,,,0.00,,2013-05-14 12:02:00,
2013-05-14 07:12:00,54.0,46.0,29.90,SSW,197,9.0,15.0,74,0.00,,,0.00,,2013-05-14 12:12:00,
2013-05-14 07:21:00,55.0,47.0,29.89,South,171,9.0,15.0,73,0.00,,,0.00,,2013-05-14 12:21:00,
2013-05-14 07:32:00,56.0,47.0,29.88,SSW,196,10.0,18.0,73,0.00,,,0.00,,2013-05-14 12:32:00,
2013-05-14 07:42:00,56.0,47.0,29.88,SSW,196,10.0,18.0,73,0.00,,,0.00,,2013-05-14 12:42:00,
2013-05-14 07:52:00,57.0,48.0,29.88,SSW,198,9.0,17.0,72,0.00,,,0.00,,2013-05-14 12:52:00,
2013-05-14 08:01:00,58.0,48.0,29.88,SSW,192,11.0,17.0,70,0.00,,,0.00,,2013-05-14 13:01:00,
2013-05-14 08:11:00,58.0,48.0,29.88,SSW,192,11.0,17.0,70,0.00,,,0.00,,2013-05-14 13:11:00,
2013-05-14 08:22:00,60.0,50.0,29.88,South,185,10.0,16.0,69,0.00,,,0.00,,2013-05-14 13:22:00,
2013-05-14 08:32:00,60.0,50.0,29.88,South,185,10.0,16.0,69,0.00,,,0.00,,2013-05-14 13:32:00,
2013-05-14 08:41:00,60.0,50.0,29.88,South,185,10.0,16.0,69,0.00,,,0.00,,2013-05-14 13:41:00,
2013-05-14 08:52:00,60.0,50.0,29.88,South,185,10.0,16.0,69,0.00,,,0.00,,2013-05-14 13:52:00,
2013-05-14 09:01:00,63.0,51.0,29.85,SSW,195,14.0,20.0,65,0.00,,,0.00,,2013-05-14 14:01:00,
2013-05-14 09:11:00,63.0,51.0,29.85,SSW,195,14.0,20.0,65,0.00,,,0.00,,2013-05-14 14:11:00,
2013-05-14 09:22:00,65.0,53.0,29.85,SSE,161,12.0,21.0,65,0.00,,,0.00,,2013-05-14 14:22:00,
2013-05-14 09:31:00,66.0,52.0,29.85,SW,225,13.0,20.0,61,0.00,,,0.00,,2013-05-14 14:31:00,
2013-05-14 09:41:00,66.0,52.0,29.85,SW,225,13.0,20.0,61,0.00,,,0.00,,2013-05-14 14:41:00,
2013-05-14 09:52:00,68.0,54.0,29.84,SSW,195,13.0,19.0,62,0.00,,,0.00,,2013-05-14 14:52:00,
2013-05-14 10:01:00,69.0,55.0,29.84,SSW,200,12.0,19.0,61,0.00,,,0.00,,2013-05-14 15:01:00,
2013-05-14 10:12:00,69.0,55.0,29.84,SSW,200,12.0,19.0,61,0.00,,,0.00,,2013-05-14 15:12:00,
2013-05-14 10:22:00,70.0,55.0,29.83,SW,227,12.0,19.0,59,0.00,,,0.00,,2013-05-14 15:22:00,
2013-05-14 10:33:00,70.0,55.0,29.83,SSW,196,13.0,20.0,58,0.00,,,0.00,,2013-05-14 15:33:00,
2013-05-14 10:43:00,71.0,55.0,29.82,SSW,213,9.0,20.0,58,0.00,,,0.00,,2013-05-14 15:43:00,
2013-05-14 10:53:00,71.0,55.0,29.82,SSW,213,9.0,20.0,58,0.00,,,0.00,,2013-05-14 15:53:00,
2013-05-14 11:02:00,72.0,56.0,29.83,WSW,244,7.0,17.0,57,0.00,,,0.00,,2013-05-14 16:02:00,
2013-05-14 11:12:00,72.0,56.0,29.83,WSW,244,7.0,17.0,57,0.00,,,0.00,,2013-05-14 16:12:00,
2013-05-14 11:23:00,73.0,57.0,29.83,SW,221,9.0,16.0,57,0.00,,,0.00,,2013-05-14 16:23:00,
2013-05-14 11:33:00,74.0,57.0,29.82,SSW,211,8.0,17.0,56,0.00,,,0.00,,2013-05-14 16:33:00,
2013-05-14 11:43:00,74.0,57.0,29.82,SSW,211,8.0,17.0,56,0.00,,,0.00,,2013-05-14 16:43:00,
2013-05-14 11:54:00,75.0,58.0,29.82,SSW,205,9.0,18.0,56,0.00,,,0.00,,2013-05-14 16:54:00,
2013-05-14 12:03:00,76.0,58.0,29.82,SW,236,8.0,17.0,54,0.00,,,0.00,,2013-05-14 17:03:00,
2013-05-14 12:13:00,76.0,58.0,29.82,SW,236,8.0,17.0,54,0.00,,,0.00,,2013-05-14 17:13:00,
2013-05-14 12:24:00,76.0,58.0,29.82,WSW,246,8.0,17.0,53,0.00,,,0.00,,2013-05-14 17:24:00,
2013-05-14 12:33:00,76.0,58.0,29.82,WSW,246,8.0,17.0,53,0.00,,,0.00,,2013-05-14 17:33:00,
2013-05-14 12:43:00,76.0,58.0,29.82,WSW,246,8.0,17.0,53,0.00,,,0.00,,2013-05-14 17:43:00,
2013-05-14 12:52:00,78.0,59.0,29.80,SW,231,7.0,16.0,53,0.00,,,0.00,,2013-05-14 17:52:00,
2013-05-14 13:02:00,79.0,60.0,29.80,SSW,205,9.0,16.0,52,0.00,,,0.00,,2013-05-14 18:02:00,
2013-05-14 13:12:00,79.0,60.0,29.80,SSW,205,9.0,16.0,52,0.00,,,0.00,,2013-05-14 18:12:00,
2013-05-14 13:22:00,80.0,61.0,29.80,SSW,204,7.0,15.0,52,0.00,,,0.00,,2013-05-14 18:22:00,
2013-05-14 13:32:00,81.0,59.0,29.80,SW,229,9.0,19.0,48,0.00,,,0.00,,2013-05-14 18:32:00,
2013-05-14 13:42:00,81.0,59.0,29.80,SW,229,9.0,19.0,48,0.00,,,0.00,,2013-05-14 18:42:00,
2013-05-14 13:52:00,81.0,59.0,29.79,WSW,245,8.0,16.0,48,0.00,,,0.00,,2013-05-14 18:52:00,
2013-05-14 14:01:00,82.0,62.0,29.79,WSW,244,6.0,17.0,51,0.00,,,0.00,,2013-05-14 19:01:00,
2013-05-14 14:12:00,82.0,62.0,29.79,WSW,244,6.0,17.0,51,0.00,,,0.00,,2013-05-14 19:12:00,
2013-05-14 14:22:00,82.0,60.0,29.79,SSW,194,8.0,18.0,48,0.00,,,0.00,,2013-05-14 19:22:00,
2013-05-14 14:32:00,83.0,62.0,29.79,WSW,254,9.0,16.0,49,0.00,,,0.00,,2013-05-14 19:32:00,
2013-05-14 14:42:00,83.0,62.0,29.79,WSW,254,9.0,16.0,49,0.00,,,0.00,,2013-05-14 19:42:00,
2013-05-14 14:52:00,84.0,62.0,29.78,WSW,250,7.0,14.0,47,0.00,,,0.00,,2013-05-14 19:52:00,
2013-05-14 15:02:00,84.0,61.0,29.78,SW,218,6.0,15.0,46,0.00,,,0.00,,2013-05-14 20:02:00,
2013-05-14 15:11:00,84.0,61.0,29.78,SW,218,6.0,15.0,46,0.00,,,0.00,,2013-05-14 20:11:00,
2013-05-14 15:23:00,85.0,62.0,29.78,SW,222,8.0,18.0,47,0.00,,,0.00,,2013-05-14 20:23:00,
2013-05-14 15:33:00,85.0,61.0,29.78,SSE,167,9.0,17.0,44,0.00,,,0.00,,2013-05-14 20:33:00,
2013-05-14 15:44:00,85.0,61.0,29.78,SSE,167,9.0,17.0,44,0.00,,,0.00,,2013-05-14 20:44:00,
2013-05-14 15:52:00,85.0,60.0,29.77,SW,224,7.0,18.0,43,0.00,,,0.00,,2013-05-14 20:52:00,
2013-05-14 16:03:00,86.0,62.0,29.76,SW,229,6.0,14.0,44,0.00,,,0.00,,2013-05-14 21:03:00,
2013-05-14 16:12:00,86.0,62.0,29.76,SW,229,6.0,14.0,44,0.00,,,0.00,,2013-05-14 21:12:00,
2013-05-14 16:23:00,86.0,62.0,29.76,West,274,6.0,14.0,44,0.00,,,0.00,,2013-05-14 21:23:00,
2013-05-14 16:33:00,87.0,62.0,29.76,SW,224,9.0,15.0,43,0.00,,,0.00,,2013-05-14 21:33:00,
2013-05-14 16:43:00,87.0,62.0,29.76,SW,224,9.0,15.0,43,0.00,,,0.00,,2013-05-14 21:43:00,
2013-05-14 16:52:00,87.0,61.0,29.75,SW,217,8.0,17.0,42,0.00,,,0.00,,2013-05-14 21:52:00,
2013-05-14 17:03:00,88.0,61.0,29.75,SW,231,6.0,12.0,41,0.00,,,0.00,,2013-05-14 22:03:00,
2013-05-14 17:13:00,88.0,61.0,29.75,SW,231,6.0,12.0,41,0.00,,,0.00,,2013-05-14 22:13:00,
2013-05-14 17:24:00,88.0,61.0,29.75,West,268,7.0,16.0,40,0.00,,,0.00,,2013-05-14 22:24:00,
2013-05-14 17:34:00,88.0,62.0,29.74,WSW,240,9.0,13.0,42,0.00,,,0.00,,2013-05-14 22:34:00,
2013-05-14 17:45:00,88.0,62.0,29.74,WSW,240,9.0,13.0,42,0.00,,,0.00,,2013-05-14 22:45:00,
2013-05-14 17:54:00,87.0,61.0,29.74,SSW,197,8.0,15.0,42,0.00,,,0.00,,2013-05-14 22:54:00,
2013-05-14 18:03:00,87.0,62.0,29.74,SSW,205,11.0,17.0,43,0.00,,,0.00,,2013-05-14 23:03:00,
2013-05-14 18:12:00,87.0,62.0,29.74,SSW,205,11.0,17.0,43,0.00,,,0.00,,2013-05-14 23:12:00,
2013-05-14 18:21:00,87.0,62.0,29.74,WSW,242,8.0,15.0,43,0.00,,,0.00,,2013-05-14 23:21:00,
2013-05-14 18:32:00,86.0,62.0,29.73,SSW,204,7.0,15.0,44,0.00,,,0.00,,2013-05-14 23:32:00,
2013-05-14 18:44:00,86.0,62.0,29.73,SSW,204,7.0,15.0,44,0.00,,,0.00,,2013-05-14 23:44:00,
2013-05-14 18:52:00,86.0,62.0,29.73,SW,217,8.0,16.0,45,0.00,,,0.00,,2013-05-14 23:52:00,
2013-05-14 19:02:00,86.0,63.0,29.73,SSW,202,7.0,14.0,46,0.00,,,0.00,,2013-05-15 00:02:00,
2013-05-14 19:11:00,86.0,63.0,29.73,SSW,202,7.0,14.0,46,0.00,,,0.00,,2013-05-15 00:11:00,
2013-05-14 19:21:00,85.0,62.0,29.72,SSW,204,10.0,18.0,46,0.00,,,0.00,,2013-05-15 00:21:00,
2013-05-14 19:32:00,84.0,62.0,29.72,SSW,196,8.0,13.0,47,0.00,,,0.00,,2013-05-15 00:32:00,
2013-05-14 19:42:00,84.0,62.0,29.72,SSW,196,8.0,13.0,47,0.00,,,0.00,,2013-05-15 00:42:00,
2013-05-14 19:51:00,83.0,61.0,29.72,SSW,198,6.0,13.0,48,0.00,,,0.00,,2013-05-15 00:51:00,
2013-05-14 20:01:00,82.0,61.0,29.72,SSW,193,8.0,13.0,49,0.00,,,0.00,,2013-05-15 01:01:00,
2013-05-14 20:11:00,82.0,61.0,29.72,SSW,193,8.0,13.0,49,0.00,,,0.00,,2013-05-15 01:11:00,
2013-05-14 20:21:00,80.0,60.0,29.72,South,191,6.0,11.0,51,0.00,,,0.00,,2013-05-15 01:21:00,
2013-05-14 20:32:00,78.0,59.0,29.72,SSW,202,4.0,7.0,53,0.00,,,0.00,,2013-05-15 01:32:00,
2013-05-14 20:42:00,78.0,59.0,29.72,SSW,202,4.0,7.0,53,0.00,,,0.00,,2013-05-15 01:42:00,
2013-05-14 20:52:00,76.0,60.0,29.72,SSW,200,4.0,7.0,58,0.00,,,0.00,,2013-05-15 01:52:00,
2013-05-14 21:02:00,76.0,60.0,29.72,SSW,201,6.0,11.0,57,0.00,,,0.00,,2013-05-15 02:02:00,
2013-05-14 21:11:00,76.0,60.0,29.72,SSW,201,6.0,11.0,57,0.00,,,0.00,,2013-05-15 02:11:00,
2013-05-14 21:21:00,76.0,60.0,29.72,SSW,197,6.0,10.0,58,0.00,,,0.00,,2013-05-15 02:21:00,
2013-05-14 21:32:00,75.0,60.0,29.72,SSW,201,6.0,8.0,59,0.00,,,0.00,,2013-05-15 02:32:00,
2013-05-14 21:42:00,75.0,60.0,29.72,SSW,201,6.0,8.0,59,0.00,,,0.00,,2013-05-15 02:42:00,
2013-05-14 21:52:00,73.0,59.0,29.73,SSW,204,4.0,7.0,61,0.00,,,0.00,,2013-05-15 02:52:00,
2013-05-14 22:01:00,72.0,59.0,29.73,SSW,204,3.0,8.0,63,0.00,,,0.00,,2013-05-15 03:01:00,
2013-05-14 22:12:00,72.0,59.0,29.73,SSW,204,3.0,8.0,63,0.00,,,0.00,,2013-05-15 03:12:00,
2013-05-14 22:22:00,72.0,59.0,29.74,South,188,3.0,7.0,64,0.00,,,0.00,,2013-05-15 03:22:00,
2013-05-14 22:33:00,70.0,58.0,29.74,SSW,197,4.0,7.0,66,0.00,,,0.00,,2013-05-15 03:33:00,
2013-05-14 22:44:00,71.0,59.0,29.74,SSW,207,6.0,10.0,66,0.00,,,0.00,,2013-05-15 03:44:00,
2013-05-14 22:54:00,71.0,59.0,29.74,SSW,207,6.0,10.0,66,0.00,,,0.00,,2013-05-15 03:54:00,
2013-05-14 23:03:00,72.0,58.0,29.73,SW,215,6.0,10.0,62,0.00,,,0.00,,2013-05-15 04:03:00,
2013-05-14 23:12:00,72.0,58.0,29.73,SW,215,6.0,10.0,62,0.00,,,0.00,,2013-05-15 04:12:00,
2013-05-14 23:24:00,74.0,58.0,29.73,SSW,208,5.0,10.0,57,0.00,,,0.00,,2013-05-15 04:24:00,
2013-05-14 23:33:00,75.0,57.0,29.73,SW,225,6.0,14.0,54,0.00,,,0.00,,2013-05-15 04:33:00,
2013-05-14 23:42:00,75.0,57.0,29.73,SW,225,6.0,14.0,54,0.00,,,0.00,,2013-05-15 04:42:00,
2013-05-14 23:52:00,75.0,57.0,29.73,SSW,207,7.0,13.0,54,0.00,,,0.00,,2013-05-15 04:52:00,